Regional Weather Roundup
Issued by NWS

Home | Current Version | Previous Version | Graphics & Text | Print | Product List | Glossary On
Versions: 1 2 3 4 5 6 7 8 9 10 11 12 13 14 15 16 17 18 19 20 21 22 23 24 25 26 27 28 29 30 31 32 33 34 35 36 37 38 39 40 41 42 43 44 45 46 47 48 49 50
000
ASUS43 KOAX 230302
RWRNE

WEATHER ROUNDUP FOR NEBRASKA
NATIONAL WEATHER SERVICE OMAHA NE
900 PM CST WED NOV 22 2017

NOTES: SATELLITE DATA IS BEING USED TO AUGMENT CLOUD COVER ABOVE
       12000 FEET.
       "FAIR" INDICATES FEW OR NO CLOUDS BELOW 12,000 FEET WITH NO
       SIGNIFICANT WEATHER AND/OR OBSTRUCTIONS TO VISIBILITY.


NEZ001>004-019>022-054>056-230400-
NEBRASKA PANHANDLE

CITY           SKY/WX    TMP DP  RH WIND       PRES   REMARKS
SCOTTSBLUFF    CLEAR     47  37  68 NW5       30.17R
ALLIANCE       CLEAR     40  35  83 W9        30.13S WCI  34
CHADRON        CLEAR     48  37  65 W8        30.12R
GORDON         FAIR      44  34  68 CALM      30.09S
KIMBALL        CLOUDY    51  39  62 NW14      30.20S
SIDNEY         CLOUDY    51  39  63 W12       30.18S
$$

NEZ057>060-069>072-079>082-230400-
SOUTHWEST NEBRASKA

CITY           SKY/WX    TMP DP  RH WIND       PRES   REMARKS
NORTH PLATTE   CLEAR     37  33  85 NW6       30.09R WCI  32
IMPERIAL       CLEAR     50  35  56 W9        30.13R
LEXINGTON      CLEAR     40  32  74 N6        30.06F
MCCOOK         CLEAR     45  36  70 SW9       30.09S
OGALLALA       CLEAR     49  37  64 W7        30.11S
$$

NEZ005>010-023>029-035>040-094-230400-
NORTH CENTRAL NEBRASKA

CITY           SKY/WX    TMP DP  RH WIND       PRES   REMARKS
VALENTINE      CLEAR     45  35  68 W9        30.03S
AINSWORTH      CLEAR     43  35  72 SW5       30.03S
BROKEN BOW     CLEAR     39  30  70 CALM      30.05S
O`NEILL        CLEAR     43  34  71 SW5       29.99F
ORD            CLOUDY    38  30  73 CALM      30.03S
THEDFORD       CLEAR     47  37  67 W6        30.07S
$$

NEZ041-046>049-061>064-073>077-083>087-230400-
SOUTH CENTRAL NEBRASKA

CITY           SKY/WX    TMP DP  RH WIND       PRES   REMARKS
GRAND ISLAND   PTCLDY    45  29  53 SW9       30.06S
AURORA         PTCLDY    42  23  46 S9        30.06S
HASTINGS       PTCLDY    44  26  49 S8        30.07S
HEBRON         PTCLDY    44  21  41 SW6       30.09F
HOLDREGE       CLEAR     47  33  57 SW5       30.07R
KEARNEY        PTCLDY    47  31  53 W6        30.07R
YORK           CLOUDY    41  23  48 SW10      30.06F
$$

NEZ011>018-030>034-042>045-230400-
NORTHEAST NEBRASKA

CITY           SKY/WX    TMP DP  RH WIND       PRES   REMARKS
NORFOLK        CLOUDY    45  26  47 SW7       29.99R
ALBION         MOCLDY    47  29  50 W3        30.02F
BLAIR          PTCLDY    39  21  48 S16       30.03F WCI  30
COLUMBUS       CLOUDY    43  23  45 SW8       30.04F
FREMONT        PTCLDY    39  20  46 S9G20     30.04F WCI  33
TEKAMAH        CLOUDY    34  19  54 S9        30.03F WCI  27
WAYNE          CLEAR     38  21  50 SW8       29.99R WCI  32
$$

NEZ050>053-065>068-078-088>093-230400-
SOUTHEAST NEBRASKA

CITY           SKY/WX    TMP DP  RH WIND       PRES   REMARKS
LINCOLN        CLOUDY    41  21  44 S7        30.08F
OMAHA EPPLEY   PTCLDY    39  19  44 S14       30.06F WCI  31
BEATRICE       PTCLDY    42  22  45 S10       30.09F
FALLS CITY     CLOUDY    35  18  49 S8        30.13F WCI  29
NEBRASKA CITY  PTCLDY    35  20  55 S12       30.09F WCI  26
PLATTSMOUTH    PTCLDY    36  20  52 S12       30.06F WCI  28
$$

NEZ044-045-051>053-067-230400-
OMAHA AREA

CITY           SKY/WX    TMP DP  RH WIND       PRES   REMARKS
OMAHA EPPLEY   PTCLDY    39  19  44 S14       30.06F WCI  31
BLAIR          PTCLDY    39  21  48 S16       30.03F WCI  30
FREMONT        PTCLDY    39  20  46 S9G20     30.04F WCI  33
MILLARD        CLOUDY    38  22  51 SE6       30.07F WCI  34
OFFUTT AFB     PTCLDY    35  20  53 S7        30.07F WCI  30
PLATTSMOUTH    PTCLDY    36  20  52 S12       30.06F WCI  28
WAHOO          FAIR      39  21  47 S9        30.04F WCI  33
$$




USA.gov is the U.S. government's official web portal to all federal, state and local government web resources and services.